Location: Clanezzo
(45.7500°N, 9.6000°E)
Time: 04:57:38
(UTC+00:00)

Gbstr 26 Del rocket - Pass Details

Date: 05 October 2021
Orbit: 492 x 1263 km, 51.8° (Epoch: 20 October)

Event Time Altitude Azimuth Distance (km) Brightness Sun altitude
Rises 22:15:20 0° 298° (WNW) 4,116 7.7 -47.7°
Reaches altitude 10° 22:18:06 10° 298° (WNW) 3,200 7.0 -47.8°
Enters shadow 22:19:56 19° 298° (WNW) 2,607 6.4 -47.9°
